Pratham
1 41783U 16059A   22258.34094375  .00000523  00000-0  10932-3 0  9996
2 41783  97.9063 296.2653 0032061 249.0553 110.7218 14.63423884318771
TY-1
1 41844U 16066D   22258.60162971  .00016111  00000-0  51659-3 0  9990
2 41844  97.3887 270.3132 0011411 336.9465 138.8204 15.32362848325409
CAS-2T
1 41847U 16066G   22258.20010860  .00000664  00000-0  11063-3 0  9999
2 41847  98.5428 322.7437 0362347 301.5054  55.1204 14.38721555307258
EO-88
1 42017U 17008BX  22258.14955957  .00029321  00000-0  80600-3 0  9998
2 42017  97.2597 323.0765 0003037 283.0400  77.0505 15.37158621310840
CAS-4B
1 42759U 17034B   22258.55707398  .00004961  00000-0  29276-3 0  9994
2 42759  43.0160 195.8481 0008343 140.5621  30.0732 15.12448834289998
CAS-4A
1 42761U 17034D   22258.31729954  .00004567  00000-0  26996-3 0  9991
2 42761  43.0167 195.8937 0008448 140.2156 356.3763 15.12528328289962
NIUSat
1 42766U 17036B   22258.36906802  .00013908  00000-0  51540-3 0  9994
2 42766  97.1952 293.0211 0013397  16.4546 343.7125 15.27656534290524
Aalto 1
1 42775U 17036L   22258.06466276  .00008950  00000-0  34321-3 0  9996
2 42775  97.1905 292.4843 0012464  17.7357 342.4315 15.26645060290443
URSA MAIOR
1 42776U 17036M   22258.33733243  .00010889  00000-0  40861-3 0  9998
2 42776  97.1920 293.5717 0012003  15.7989 344.3623 15.27316692290520
Max Valier Sat
1 42778U 17036P   22258.52305536  .00009895  00000-0  36180-3 0  9995
2 42778  97.1975 296.5646 0010621  16.7914 343.3676 15.28216114290659
Pegasus
1 42784U 17036V   22258.06097259  .00014702  00000-0  49936-3 0  9997
2 42784  97.1912 297.1510 0009867  19.0650 341.0959 15.30533452290713
NUDATSat
1 42787U 17036Y   22258.58002754  .00025626  00000-0  71584-3 0  9994
2 42787  97.1938 302.4990 0007566   5.0124 355.1205 15.36660366290925
SUCHAI 1
1 42788U 17036Z   22258.07340331  .00018384  00000-0  58323-3 0  9994
2 42788  97.1914 299.0591 0008807  14.2019 345.9469 15.32695014290903
SKCUBE
1 42789U 17036AA  22258.11955650  .00016347  00000-0  53470-3 0  9991
2 42789  97.1915 298.4578 0009044  15.3157 344.8357 15.31736507290795
VZLUSAT 1
1 42790U 17036AB  22258.07671240  .00027099  00000-0  76274-3 0  9991
2 42790  97.1932 301.9531 0007173   6.5245 353.6092 15.36416500290995
VENTA 1
1 42791U 17036AC  22258.06116725  .00014332  00000-0  48104-3 0  9990
2 42791  97.1919 298.2032 0008907  16.8334 343.3202 15.30932962290767
Robusta 1B
1 42792U 17036AD  22258.10659982  .00017460  00000-0  55916-3 0  9997
2 42792  97.1914 299.0816 0008524  15.7243 344.4263 15.32406593290840
D-SAT
1 42794U 17036AF  22258.50155902  .00002363  00000-0  20110-3 0  9990
2 42794  97.4550 259.1924 0123375 142.9773 218.0040 14.92958684284919
TechnoSat
1 42829U 17042E   22258.55835862  .00001373  00000-0  14013-3 0  9996
2 42829  97.4117 107.4074 0015450  68.2230 292.0632 14.92043679281522
AO-91
1 43017U 17073E   22258.52691755  .00004013  00000-0  30391-3 0  9999
2 43017  97.6608 149.0163 0245144 252.6524 104.7744 14.81997821260457
PICSAT
1 43132U 18004X   22258.21406939  .00024390  00000-0  75337-3 0  9995
2 43132  97.3655 334.1981 0007979  48.5172 311.6754 15.33500724260159
AO-92
1 43137U 18004AC  22258.14770516  .00016433  00000-0  55231-3 0  9997
2 43137  97.3619 332.5559 0008377  52.6801 307.5202 15.30869152260067
TianYi 2
1 43155U 18008A   22258.61709191  .00008465  00000-0  43822-3 0  9993
2 43155  97.3444 314.1378 0015668 185.3707 329.0860 15.16350980256936
Zhou Enlai
1 43156U 18008B   22258.64350025  .00008096  00000-0  42208-3 0  9992
2 43156  97.3495 314.0677 0012959 185.0436 326.2083 15.16150656256866
TianYi 6
1 43158U 18008D   22258.14728243  .00007773  00000-0  41903-3 0  9992
2 43158  97.3463 311.3781 0012219 186.5099 231.1128 15.14985734256684
S-Net D
1 43186U 18014G   22258.53568026  .00002482  00000-0  21404-3 0  9990
2 43186  97.6470 162.5272 0010431   3.1431 356.9855 14.98168971252401
S-Net B
1 43187U 18014H   22258.53593386  .00002503  00000-0  21577-3 0  9993
2 43187  97.6466 162.4745 0010419   3.2098 356.9190 14.98166842252404
S-Net A
1 43188U 18014J   22258.53624189  .00002533  00000-0  21834-3 0  9999
2 43188  97.6471 162.5434 0010421   3.4286 356.7006 14.98166651252403
S-Net C
1 43189U 18014K   22258.53710933  .00002511  00000-0  21647-3 0  9991
2 43189  97.6465 162.4631 0010393   3.5151 356.6143 14.98163488250959
FMN 1
1 43192U 18015A   22258.60240505  .00043062  00000-0  97924-3 0  9994
2 43192  97.5456  46.4826 0009865  68.9071  62.8927 15.42820434257322
Shaonian Xing
1 43199U 18015H   22258.57479862  .00023786  00000-0  66055-3 0  9999
2 43199  97.5255  40.7140 0013226  81.4450  46.3641 15.36803069257271
SurfSat
1 43614U 18070B   22258.48058411  .00056063  00000-0  64080-3 0  9995
2 43614  93.0186 137.1157 0010417  38.6530 321.5480 15.61926267225085
CP-7 DAVE
1 43615U 18070C   22258.38898123  .00070757  00000-0  87328-3 0  9993
2 43615  93.0171 136.8253 0011356  40.4647 319.7461 15.59859773225022
ELFIN-B
1 43616U 18070D   22258.26017750  .00617375  16077-3  15104-2 0  9999
2 43616  93.0002 139.0114 0003557  81.2389 278.9298 15.96174593225516
ELFIN-A
1 43617U 18070E   22258.19050688  .02401119  19965-6  13401-2 0  9998
2 43617  93.0012 140.7397 0004225 197.6616 162.4535 16.19421292225606
CubeBel-1
1 43666U 18083E   22258.48752661  .00010914  00000-0  44461-3 0  9990
2 43666  97.4157 286.2092 0013190  24.8143  81.1208 15.24572109215199
Changshagaoxin
1 43669U 18083H   22258.49704639  .00010301  00000-0  44125-3 0  9993
2 43669  97.4113 281.9189 0010100  25.9832  78.0244 15.22922290215001
Ten-Koh
1 43677U 18084G   22258.32860686  .00001891  00000-0  19543-3 0  9990
2 43677  97.9762  29.2657 0015232 339.9524  20.1094 14.91293107211072
PO-101
1 43678U 18084H   22258.50413224  .00000736  00000-0  77854-4 0  9990
2 43678  97.9836  32.8943 0009818 356.5922   3.5211 14.92297567211287
IRVINE 01
1 43693U 18088D   22258.42796723  .00073607  00000-0  16167-2 0  9995
2 43693  85.0242 249.5699 0014791 123.4976 236.7694 15.43630931214072
QO-100
1 43700U 18090A   22258.23591243  .00000135  00000-0  00000-0 0  9999
2 43700   0.0200 151.6688 0002380  62.1398 251.0860  1.00273186 13931
Reaktor Hello World
1 43743U 18096AA  22258.17220684  .00021383  00000-0  61125-3 0  9999
2 43743  97.3472 337.7527 0015772  97.8686 262.4349 15.35879822211728
MinXSS-2
1 43758U 18099A   22258.45029661  .00004256  00000-0  36667-3 0  9994
2 43758  97.6153 324.1878 0013924 326.0644  33.9687 14.97787599206579
AO-95
1 43770U 18099N   22258.44894865  .00003650  00000-0  32335-3 0  9998
2 43770  97.6120 322.4468 0013219 338.9418  21.1258 14.96794254206478
RANGE-B
1 43772U 18099Q   22258.46968567  .00004650  00000-0  40301-3 0  9996
2 43772  97.6242 324.3615 0012150 326.1635  33.8810 14.97523340206508
RANGE-A
1 43773U 18099R   22258.13080980  .00002628  00000-0  23723-3 0  9997
2 43773  97.6056 320.8710 0012157 328.6248  31.4247 14.96292717206400
MOVE-II
1 43780U 18099Y   22258.45812229  .00005548  00000-0  47019-3 0  9997
2 43780  97.6158 323.8123 0011359 333.8654  26.1994 14.98314772206536
SNUSat 2
1 43782U 18099AA  22258.41989341  .00002498  00000-0  22210-3 0  9992
2 43782  97.6135 322.9047 0011356 325.9265  34.1227 14.96940591206490
SnugLite
1 43784U 18099AC  22258.44375815  .00003024  00000-0  26605-3 0  9990
2 43784  97.6083 322.5569 0013721 330.5726  29.4722 14.97179217206522
ITASat 1
1 43786U 18099AE  22258.43487943  .00002139  00000-0  19110-3 0  9996
2 43786  97.6149 323.3991 0014066 330.8002  29.2432 14.96889657206518
EAGLET 1
1 43790U 18099AJ  22258.18765757  .00002491  00000-0  22114-3 0  9994
2 43790  97.6144 323.7001 0012194 336.1616  23.9040 14.97006472206214
ESEO
1 43792U 18099AL  22258.15930416  .00000940  00000-0  88018-4 0  9992
2 43792  97.6102 322.7545 0012510 334.8750  25.1862 14.96343710206245
CSIM
1 43793U 18099AM  22258.45757927  .00005985  00000-0  49824-3 0  9995
2 43793  97.6162 324.8019 0010524 322.1758  37.8724 14.98989453206364
Astrocast 0.1
1 43798U 18099AS  22258.18313341  .00005493  00000-0  46793-3 0  9994
2 43798  97.6148 324.3039 0010870 308.6137  51.4112 14.98126879206542
JO-97
1 43803U 18099AX  22258.15328058  .00003241  00000-0  28267-3 0  9994
2 43803  97.6122 322.9091 0013779 332.4329  27.6161 14.97473119206496
Suomi 100
1 43804U 18099AY  22258.44481837  .00003050  00000-0  26718-3 0  9999
2 43804  97.6103 323.0958 0013808 329.1835  30.8575 14.97345988206541
Al Farabi 2
1 43805U 18099AZ  22258.59534141  .00004117  00000-0  35271-3 0  9992
2 43805  97.6134 323.8337 0013500 328.2346  31.8067 14.98022847206590
CHOMPTT
1 43855U 18104G   22258.54558212  .00011429  00000-0  40569-3 0  9994
2 43855  85.0386 351.0347 0012810 261.8053  98.1739 15.28830390208485
ISAT
1 43879U 18111D   22258.49424498  .00004736  00000-0  40065-3 0  9994
2 43879  97.6562 162.4613 0013610  27.7356 332.4589 14.98440858203158
UWE-4
1 43880U 18111E   22258.28847372  .00005348  00000-0  45041-3 0  9992
2 43880  97.6585 163.0150 0012626  29.8290 330.3650 14.98568416203151
Sparrow
1 43881U 18111F   22258.49631357  .00004804  00000-0  40317-3 0  9997
2 43881  97.6610 163.4824 0013030  26.6773 333.5118 14.98752660203198
Lume 1
1 43908U 18111AJ  22258.24306375  .00016217  00000-0  52629-3 0  9999
2 43908  97.1764 143.2502 0019746 110.7552 249.5808 15.31838917207130
FO-99
1 43937U 19003F   22258.32920332  .00019272  00000-0  61078-3 0  9998
2 43937  97.1244 288.2653 0019625 186.0446 174.0563 15.32563384203732
